Location: Cointrin
(46.2167°N, 6.1167°E)
Time: 06:10:53
(UTC+00:00)

Okean O Rocket - Pass Details

Date: 08 February 2023
Orbit: 620 x 643 km, 98.1° (Epoch: 25 March)

Event Time Altitude Azimuth Distance (km) Brightness Sun altitude
Rises 19:22:45 0° 187° (S) 2,914 5.0 -26.7°
Reaches altitude 10° 19:25:06 10° 197° (SSW) 2,015 4.3 -27.1°
Maximum altitude 19:29:07 35° 263° (W) 1,035 3.1 -27.8°
Drops below altitude 10° 19:33:12 10° 329° (NNW) 2,042 4.6 -28.5°
Sets 19:35:35 0° 339° (NNW) 2,960 5.4 -28.9°
